Regional Weather Roundup
Issued by NWS

Home | Current Version | Previous Version | Graphics & Text | Print | Product List | Glossary On
Versions: 1 2 3 4 5 6 7 8 9 10 11 12 13 14 15 16 17 18 19 20 21 22 23 24 25 26 27 28 29 30 31 32 33 34 35 36 37 38 39 40 41 42 43 44 45 46 47 48
000
ASUS45 KBOU 161307
RWRCO

WEATHER ROUNDUP FOR COLORADO
NATIONAL WEATHER SERVICE DENVER/BOULDER CO
700 AM MDT TUE SEP 16 2014

NOTE: "FAIR" INDICATES FEW OR NO CLOUDS BELOW 12000 FEET WITH NO
SIGNIFICANT WEATHER AND/OR OBSTRUCTIONS TO VISIBILITY.

COZ001>005-013-030-031-161400-
...NORTHWEST COLORADO...

CITY           SKY/WX    TMP DP  RH WIND       PRES   REMARKS
CRAIG          PTCLDY    38  35  89 W3        30.30S
HAYDEN         CLEAR     45  36  70 SE14      30.32R
MEEKER         CLEAR     43  37  79 NE5       30.32R
MOUNT WERNER   NOT AVBL
STEAMBOAT SPGS CLEAR     42  38  86 CALM      30.35R
WALDEN         CLEAR     37  32  81 CALM      30.40R
$$

COZ006>008-011-161400-
...WEST CENTRAL VALLEYS...

CITY           SKY/WX    TMP DP  RH WIND       PRES   REMARKS
GRAND JUNCTION CLEAR     51  42  71 CALM      30.21R
MONTROSE       CLEAR     52  41  66 SE5       30.30R
EAGLE          CLEAR     41  37  87 CALM      30.41R
RIFLE          CLEAR     48  40  73 CALM      30.29R
DELTA          CLEAR     56  42  57 NE5       30.27R HAZE
NUCLA          NOT AVBL
$$

COZ017>023-064>068-161400-
...SOUTHWEST COLORADO...

CITY           SKY/WX    TMP DP  RH WIND       PRES   REMARKS
DURANGO        CLEAR     51  44  77 SW3       30.37R
CORTEZ         CLEAR     48  43  82 NE5       30.31R
PAGOSA SPRINGS CLEAR     46  39  76 CALM      30.44R
TELLURIDE      NOT AVBL
WOLF CREEK PAS CLEAR     41  36  81 NW3       30.68R
$$

COZ009-010-012-014-032>034-037-058>063-161400-
...CENTRAL COLORADO...

CITY           SKY/WX    TMP DP  RH WIND       PRES   REMARKS
ASPEN          CLEAR     45  35  68 S5        30.41R
BUENA VISTA    CLEAR     43  37  78 NW9       30.45S
COPPER MTN     CLEAR     46  28  49 W10       30.67R
BERTHOUD PASS  FAIR      37  36  93 NW23G32   30.68R
COTTONWOOD PAS CLEAR     52  32  46 SW3       30.55R
GUNNISON       MOCLDY    39  34  81 CALM      30.48R
KREMMLING      CLEAR     34  32  93 CALM      30.44R
LEADVILLE      CLEAR     35  34  96 NE3       30.54R
MONARCH PASS   PTCLDY    41  32  70 SW16      30.77
SALIDA         CLEAR     49  40  70 NW7       30.50R
SUNLIGHT       CLEAR     52  32  46 CALM      30.61R
WILKERSON PASS NOT AVBL
$$

COZ069>075-161400-
...SAN LUIS VALLEY/SANGRE DE CRISTO MOUNTAINS...

CITY           SKY/WX    TMP DP  RH WIND       PRES   REMARKS
ALAMOSA        PTCLDY    38  35  89 SW6       30.43R
LA VETA PASS   NOT AVBL
SAGUACHE         N/A     46  36  66 N9        30.46
$$

COZ035-036-038>040-161400-
...NORTHERN COLORADO FRONT RANGE...

CITY           SKY/WX    TMP DP  RH WIND       PRES   REMARKS
DENVER INTL AP PTCLDY    58  44  60 SW16      30.19R
DMNS CITY PARK   N/A     58  44  59 S8        30.19S
AURORA         PTCLDY    57  44  61 S10       30.22R
FRONT RANGE AP CLEAR     61  45  55 SW13      30.20R
ERIE MUNI ARPT CLEAR     46  44  92 CALM      30.17R
BOULDER MUN AP CLEAR     59  39  47 CALM      30.18R
CENTENNIAL     PTCLDY    60  42  51 W14       30.23R
BROOMFIELD     PTCLDY    57  39  51 W7        30.20S
FORT COLLINS   PTCLDY    46  45  93 NE5       30.18S
LONGMONT       PTCLDY    47  44  88 S5        30.18S FOG
$$

COZ041-046-047-076>085-087-088-161400-
...PIKES PEAK/PALMER DIVIDE AND SOUTHERN FOOTHILLS...

CITY           SKY/WX    TMP DP  RH WIND       PRES   REMARKS
COLO. SPRINGS  PTCLDY    50  47  89 W3        30.28F FOG
A. F. ACADEMY  CLEAR     47  45  93 NE5       30.29S
ELLICOTT       NOT AVBL
FALCON         CLEAR     57  43  58 NW12      30.30F
FORT CARSON    CLEAR     51  51  99 W2        30.26F
LIMON          CLOUDY    51  50  96 S8        30.23S
MONUMENT HILL  CLEAR     52  41  66 W10       30.30R
TRINIDAD       CLEAR     52  47  83 SW14      30.27S
$$

COZ042>045-048>051-090-091-161400-
...NORTHEAST COLORADO...

CITY           SKY/WX    TMP DP  RH WIND       PRES   REMARKS
GREELEY ARPT   PTCLDY    43  37  81 CALM      30.17R
AKRON          CLEAR     53  50  89 SW10      30.14S
BURLINGTON     CLOUDY    57  51  80 SW17G25   30.19S
WRAY           PTCLDY   N/A N/A N/A SE6       30.14F
STERLING       CLEAR     50  50 100 CALM      30.12R FOG
HOLYOKE        PTCLDY    54  50  87 S7        30.14R
FORT MORGAN    FOG       46  44  95 W7        30.15S VSB<1/4
$$

COZ086-089-092>099-161400-
...SOUTHEAST COLORADO...

CITY           SKY/WX    TMP DP  RH WIND       PRES   REMARKS
PUEBLO         CLOUDY    55  53  93 NW3       30.23S
LA JUNTA       CLEAR     50  48  93 W5        30.21S
LAMAR          CLOUDY    58  52  80 SE5       30.19S
SPRINGFIELD      N/A     53  53 100 S10       30.22F
$$


USA.gov is the U.S. government's official web portal to all federal, state and local government web resources and services.